Change the Weather History Date:

Saturday, June 15, 2013

  Actual Average Record
Temperature  
Mean Temperature 85 °F 80 °F  
Max Temperature 94 °F 90 °F 105 °F (1911)
Min Temperature 76 °F 69 °F 53 °F (1933)
Degree Days  
Heating Degree Days 0 0  
Month to date heating degree days 0 0  
Since 1 June heating degree days 0 0  
Since 1 July heating degree days 2062 2258  
Cooling Degree Days 20 15  
Month to date cooling degree days 218 198  
Year to date cooling degree days 606 577  
Since 1 June cooling degree days 218 198  
Growing Degree Days 34 (Base 50)    
Moisture  
Dew Point 69 °F    
Average Humidity 64    
Maximum Humidity 82    
Minimum Humidity 46    
Precipitation  
Precipitation 0.00 in 0.17 in 1.66 in (1973)
Month to date precipitation 0.89 2.44  
Year to date precipitation 18.09 22.17  
Snow  
Snow 0.00 in - - ()
Month to date snowfall 0.0  
Since 1 June snowfall 0.0  
Since 1 July snowfall 0.8  
Snow Depth 0.00 in    
Sea Level Pressure  
Sea Level Pressure 29.94 in    
Wind  
Wind Speed 5 mph (ESE)    
Max Wind Speed 13 mph    
Max Gust Speed 15 mph    
Visibility 10 miles    
Events      
T = Trace of Precipitation, MM = Missing Value Source: NWS Daily Summary

Daily Weather History Graph

Daily Weather History Graph

Search for Another Location

Airport or City:

Trip Planner

Search our weather history database for the weather conditions in past years. The results will help you decide how hot, cold, wet, or windy it might be!

Date:

Astronomy

Jun. 15, 2013 Rise Set
Actual Time 6:11 AM CDT 8:27 PM CDT
Civil Twilight 5:42 AM CDT 8:55 PM CDT
Nautical Twilight 5:08 AM CDT 9:30 PM CDT
Astronomical Twilight 4:30 AM CDT 10:08 PM CDT
Moon 12:26 PM CDT (6/15) 12:21 AM CDT (6/15)
Length of Visible Light 15h 12m
Length of Day
14h 16m
Waxing Crescent, 40% of the Moon is Illuminated
Jun 15
Waxing Crescent
Jun 16
First Quarter
Jun 23
Full
Jun 29
Last Quarter
Jul 8
New

Hourly Weather History & Observations

Time (CDT) Temp. Heat Index Dew Point Humidity Pressure Visibility Wind Dir Wind Speed Gust Speed Precip Events Conditions
12:53 AM 82.9 °F 88.0 °F 72.0 °F 69% 29.96 in 10.0 mi ESE 10.4 mph - N/A   Clear
1:53 AM 81.0 °F 84.4 °F 70.0 °F 69% 29.94 in 10.0 mi ESE 5.8 mph - N/A   Clear
2:53 AM 79.0 °F - 70.0 °F 74% 29.92 in 10.0 mi Calm Calm - N/A   Clear
3:53 AM 75.9 °F - 70.0 °F 82% 29.91 in 10.0 mi ENE 4.6 mph - N/A   Clear
4:53 AM 77.0 °F - 69.1 °F 76% 29.94 in 10.0 mi ESE 5.8 mph - N/A   Clear
5:53 AM 77.0 °F - 68.0 °F 74% 29.96 in 10.0 mi SE 5.8 mph - N/A   Overcast
6:53 AM 77.0 °F - 68.0 °F 74% 29.97 in 10.0 mi East 6.9 mph - N/A   Mostly Cloudy
7:53 AM 80.1 °F 82.7 °F 68.0 °F 67% 29.99 in 10.0 mi SSE 8.1 mph - N/A   Scattered Clouds
8:53 AM 82.9 °F 85.4 °F 66.9 °F 58% 30.00 in 10.0 mi Variable 5.8 mph - N/A   Clear
9:53 AM 86.0 °F 88.2 °F 66.0 °F 51% 29.99 in 10.0 mi ENE 5.8 mph - N/A   Clear
10:53 AM 88.0 °F 89.3 °F 64.0 °F 45% 29.97 in 10.0 mi SE 5.8 mph - N/A   Clear
11:53 AM 90.0 °F 92.4 °F 66.0 °F 45% 29.97 in 10.0 mi Calm Calm - N/A   Clear
12:53 PM 91.0 °F 95.2 °F 68.0 °F 47% 29.95 in 10.0 mi SSE 4.6 mph - N/A   Clear
1:53 PM 91.0 °F 95.6 °F 69.1 °F 48% 29.95 in 10.0 mi Calm Calm - N/A   Partly Cloudy
2:53 PM 93.0 °F 97.9 °F 69.1 °F 45% 29.93 in 10.0 mi Variable 5.8 mph - N/A   Partly Cloudy
3:53 PM 91.9 °F 95.9 °F 68.0 °F 45% 29.92 in 10.0 mi SE 4.6 mph - N/A   Scattered Clouds
4:53 PM 93.9 °F 99.1 °F 69.1 °F 44% 29.89 in 10.0 mi SE 4.6 mph - N/A   Scattered Clouds
5:53 PM 89.1 °F 94.1 °F 70.0 °F 53% 29.88 in 10.0 mi East 6.9 mph - N/A   Clear
6:53 PM 87.1 °F 92.0 °F 70.0 °F 57% 29.91 in 10.0 mi East 5.8 mph - N/A   Scattered Clouds
7:53 PM 84.9 °F 89.4 °F 70.0 °F 61% 29.92 in 10.0 mi ESE 3.5 mph - N/A   Clear
8:53 PM 82.9 °F 87.5 °F 71.1 °F 67% 29.91 in 10.0 mi East 4.6 mph - N/A   Clear
9:53 PM 82.9 °F 87.5 °F 71.1 °F 67% 29.94 in 10.0 mi Calm Calm - N/A   Clear
10:53 PM 82.9 °F 86.5 °F 69.1 °F 63% 29.95 in 10.0 mi ESE 6.9 mph - N/A   Clear
11:53 PM 82.0 °F 84.9 °F 68.0 °F 62% 29.95 in 10.0 mi SE 8.1 mph - N/A   Clear